START_TIME,STEP,MOV.,H8,t_acc.,H43,t_acc.,M25,t_acc.,H9,t_acc.
1979-07-17 18:00:29.480 ,0,1,0.,12.0,0.,12.0,0.,12.0,0.,12.0
1979-07-17 18:00:41.480 ,0,1,0.,12.0,0.,12.0,0.,12.0,0.,12.0
1979-07-17 18:00:53.480 ,4,1,0.,12.0,0.,12.0,0.,12.0,0.,12.0
1979-07-17 18:01:05.480 ,4,1,0.,12.0,0.,12.0,0.,12.0,0.,12.0
1979-07-17 18:01:17.480 ,7,1,0.,12.0,0.,12.0,0.,12.0,0.,12.0
1979-07-17 18:01:29.480 ,7,1,0.,12.0,0.,12.0,0.,12.0,0.,12.0
1979-07-17 18:01:41.480 ,3,1,0.,12.0,0.,12.0,0.,12.0,0.,12.0
1979-07-17 18:01:53.480 ,3,1,0.,12.0,0.,12.0,0.,12.0,0.,12.0
1979-07-17 18:02:05.480 ,0,1,0.,12.0,0.,12.0,0.,12.0,0.,12.0
1979-07-17 18:02:17.480 ,0,1,0.,12.0,0.,12.0,0.,12.0,0.,12.0
1979-07-17 18:02:29.480 ,4,1,0.,12.0,0.,12.0,0.,12.0,0.,12.0
1979-07-17 18:02:41.480 ,4,1,0.,12.0,0.,12.0,0.,12.0,0.,12.0
1979-07-17 18:02:53.480 ,7,1,0.,12.0,0.,12.0,0.,12.0,0.,12.0
1979-07-17 18:03:05.480 ,7,1,0.,12.0,0.,12.0,0.,12.0,0.,12.0
1979-07-17 18:03:17.480 ,3,1,0.,12.0,0.,12.0,0.,12.0,0.,12.0
1979-07-17 18:03:29.480 ,3,1,1.,12.0,0.,12.0,0.,12.0,0.,12.0
1979-07-17 18:03:41.480 ,0,1,0.,12.0,0.,12.0,0.,12.0,0.,12.0
1979-07-17 18:03:53.480 ,0,1,1.,12.0,0.,12.0,0.,12.0,0.,12.0
1979-07-17 18:04:05.480 ,4,1,0.,12.0,0.,12.0,0.,12.0,0.,12.0
1979-07-17 18:04:17.480 ,4,1,0.,12.0,0.,12.0,0.,12.0,0.,12.0
1979-07-17 18:04:29.480 ,7,1,0.,12.0,0.,12.0,0.,12.0,0.,12.0
1979-07-17 18:04:41.480 ,7,1,0.,12.0,0.,12.0,0.,12.0,0.,12.0
1979-07-17 18:04:53.480 ,0,0,0.,12.0,0.,12.0,0.,12.0,0.,12.0
1979-07-17 18:05:05.480 ,0,0,0.,12.0,0.,12.0,0.,12.0,0.,12.0
1979-07-17 18:05:17.480 ,0,0,0.,12.0,0.,12.0,0.,12.0,0.,12.0
1979-07-17 18:05:29.480 ,0,0,0.,12.0,0.,12.0,0.,12.0,0.,12.0
1979-07-17 18:05:41.480 ,0,0,0.,12.0,0.,12.0,0.,12.0,0.,12.0
1979-07-17 18:05:53.480 ,0,0,0.,12.0,0.,12.0,0.,12.0,0.,12.0
1979-07-17 18:06:05.480 ,0,0,0.,12.0,0.,12.0,0.,12.0,0.,12.0
1979-07-17 18:06:17.480 ,0,0,0.,12.0,0.,12.0,0.,12.0,0.,12.0
1979-07-17 18:06:29.480 ,5,0,0.,12.0,0.,12.0,0.,12.0,0.,12.0
1979-07-17 18:06:41.480 ,5,0,0.,12.0,0.,12.0,0.,12.0,0.,12.0
1979-07-17 18:06:53.480 ,5,0,0.,12.0,0.,12.0,0.,12.0,0.,12.0
1979-07-17 18:07:05.480 ,5,0,0.,12.0,0.,12.0,0.,12.0,0.,12.0
1979-07-17 18:07:17.480 ,4,0,0.,12.0,0.,12.0,0.,12.0,0.,12.0
1979-07-17 18:07:29.480 ,4,0,0.,12.0,0.,12.0,0.,12.0,0.,12.0
1979-07-17 18:07:41.480 ,4,0,0.,12.0,0.,12.0,0.,12.0,0.,12.0
1979-07-17 18:07:53.480 ,4,0,0.,12.0,0.,12.0,0.,12.0,0.,12.0
1979-07-17 18:08:05.480 ,3,0,0.,12.0,0.,12.0,0.,12.0,0.,12.0
1979-07-17 18:08:17.480 ,3,0,0.,12.0,0.,12.0,0.,12.0,0.,12.0
1979-07-17 18:08:29.480 ,3,0,0.,12.0,0.,12.0,0.,12.0,0.,12.0
1979-07-17 18:08:41.480 ,3,0,0.,12.0,0.,12.0,0.,12.0,0.,12.0
1979-07-17 18:08:53.480 ,2,0,0.,12.0,0.,12.0,0.,12.0,0.,12.0
1979-07-17 18:09:05.480 ,2,0,0.,12.0,0.,12.0,0.,12.0,0.,12.0
1979-07-17 18:09:17.480 ,2,0,0.,12.0,0.,12.0,0.,12.0,0.,12.0
1979-07-17 18:09:29.480 ,2,0,0.,12.0,0.,12.0,0.,12.0,0.,12.0
1979-07-17 18:09:41.480 ,1,0,0.,12.0,0.,12.0,0.,12.0,0.,12.0
1979-07-17 18:09:53.480 ,1,0,0.,12.0,0.,12.0,0.,12.0,0.,12.0
1979-07-17 18:10:05.480 ,1,0,0.,12.0,0.,12.0,0.,12.0,0.,12.0
1979-07-17 18:10:17.480 ,1,0,0.,12.0,0.,12.0,0.,12.0,0.,12.0
1979-07-17 18:10:29.480 ,0,0,0.,12.0,0.,12.0,0.,12.0,0.,12.0
1979-07-17 18:10:41.480 ,0,0,0.,12.0,0.,12.0,0.,12.0,0.,12.0
1979-07-17 18:10:53.480 ,0,0,0.,12.0,0.,12.0,0.,12.0,0.,12.0
1979-07-17 18:11:05.480 ,0,0,0.,12.0,0.,12.0,0.,12.0,0.,12.0
1979-07-17 18:11:17.480 ,0,0,0.,12.0,0.,12.0,0.,12.0,0.,12.0
1979-07-17 18:11:29.480 ,0,0,0.,12.0,0.,12.0,0.,12.0,0.,12.0
1979-07-17 18:11:41.480 ,0,0,0.,12.0,0.,12.0,0.,12.0,0.,12.0
1979-07-17 18:11:53.480 ,0,0,0.,12.0,0.,12.0,0.,12.0,0.,12.0
1979-07-17 18:12:05.480 ,1,0,0.,12.0,0.,12.0,0.,12.0,0.,12.0
1979-07-17 18:12:17.480 ,1,0,0.,12.0,0.,12.0,0.,12.0,0.,12.0
1979-07-17 18:12:29.480 ,1,0,0.,12.0,0.,12.0,0.,12.0,0.,12.0
1979-07-17 18:12:41.480 ,1,0,0.,12.0,0.,12.0,0.,12.0,0.,12.0
1979-07-17 18:12:53.480 ,2,0,0.,12.0,0.,12.0,0.,12.0,0.,12.0
1979-07-17 18:13:05.480 ,2,0,0.,12.0,0.,12.0,0.,12.0,0.,12.0
1979-07-17 18:13:17.480 ,2,0,0.,12.0,0.,12.0,0.,12.0,0.,12.0
1979-07-17 18:13:29.480 ,2,0,0.,12.0,0.,12.0,0.,12.0,0.,12.0
1979-07-17 18:13:41.480 ,3,0,0.,12.0,0.,12.0,0.,12.0,0.,12.0
1979-07-17 18:13:53.480 ,3,0,0.,12.0,0.,12.0,0.,12.0,0.,12.0
1979-07-17 18:14:05.480 ,3,0,0.,12.0,0.,12.0,0.,12.0,0.,12.0
1979-07-17 18:14:17.480 ,3,0,0.,12.0,0.,12.0,0.,12.0,0.,12.0
1979-07-17 18:14:29.480 ,4,0,0.,12.0,0.,12.0,0.,12.0,0.,12.0
1979-07-17 18:14:41.480 ,4,0,0.,12.0,0.,12.0,0.,12.0,0.,12.0
1979-07-17 18:14:53.480 ,4,0,0.,12.0,0.,12.0,0.,12.0,0.,12.0
1979-07-17 18:15:05.480 ,4,0,0.,12.0,0.,12.0,0.,12.0,0.,12.0
1979-07-17 18:15:17.480 ,5,0,0.,12.0,0.,12.0,0.,12.0,0.,12.0
1979-07-17 18:15:29.480 ,5,0,0.,12.0,0.,12.0,0.,12.0,0.,12.0
1979-07-17 18:15:41.480 ,5,0,0.,12.0,0.,12.0,0.,12.0,0.,12.0
1979-07-17 18:15:53.480 ,5,0,0.,12.0,0.,12.0,0.,12.0,0.,12.0
1979-07-17 18:16:05.480 ,6,0,0.,12.0,0.,12.0,0.,12.0,0.,12.0
1979-07-17 18:16:17.480 ,6,0,0.,12.0,0.,12.0,0.,12.0,0.,12.0
1979-07-17 18:16:29.480 ,6,0,0.,12.0,0.,12.0,0.,12.0,0.,12.0
1979-07-17 18:16:41.480 ,6,0,0.,12.0,0.,12.0,0.,12.0,0.,12.0
1979-07-17 18:16:53.480 ,7,0,0.,12.0,0.,12.0,0.,12.0,0.,12.0
1979-07-17 18:17:05.480 ,7,0,0.,12.0,0.,12.0,0.,12.0,0.,12.0
1979-07-17 18:17:17.480 ,7,0,0.,12.0,0.,12.0,0.,12.0,0.,12.0
1979-07-17 18:17:29.480 ,7,0,0.,12.0,0.,12.0,0.,12.0,0.,12.0
1979-07-17 18:17:41.480 ,7,0,0.,12.0,0.,12.0,0.,12.0,0.,12.0
1979-07-17 18:17:53.480 ,7,0,0.,12.0,0.,12.0,0.,12.0,0.,12.0
1979-07-17 18:18:05.480 ,7,0,0.,12.0,0.,12.0,0.,12.0,0.,12.0
1979-07-17 18:18:17.480 ,7,0,0.,12.0,0.,12.0,0.,12.0,0.,12.0
1979-07-17 18:18:29.480 ,6,0,0.,12.0,0.,12.0,0.,12.0,0.,12.0
1979-07-17 18:18:41.480 ,6,0,0.,12.0,0.,12.0,0.,12.0,0.,12.0
1979-07-17 18:18:53.480 ,6,0,0.,12.0,0.,12.0,0.,12.0,0.,12.0
1979-07-17 18:19:05.480 ,6,0,0.,12.0,0.,12.0,0.,12.0,0.,12.0
1979-07-17 18:19:17.480 ,5,0,0.,12.0,0.,12.0,0.,12.0,0.,12.0
1979-07-17 18:19:29.480 ,5,0,0.,12.0,0.,12.0,0.,12.0,0.,12.0
1979-07-17 18:19:41.480 ,5,0,1.,12.0,0.,12.0,0.,12.0,0.,12.0
1979-07-17 18:19:53.480 ,5,0,0.,12.0,0.,12.0,0.,12.0,0.,12.0
1979-07-17 18:20:05.480 ,4,0,0.,12.0,0.,12.0,0.,12.0,0.,12.0
1979-07-17 18:20:17.480 ,4,0,0.,12.0,0.,12.0,0.,12.0,0.,12.0
1979-07-17 18:20:29.480 ,4,0,0.,12.0,0.,12.0,0.,12.0,0.,12.0
1979-07-17 18:20:41.480 ,4,0,0.,12.0,0.,12.0,0.,12.0,0.,12.0
1979-07-17 18:20:53.480 ,3,0,0.,12.0,0.,12.0,0.,12.0,0.,12.0
1979-07-17 18:21:05.480 ,3,0,0.,12.0,0.,12.0,0.,12.0,0.,12.0
1979-07-17 18:21:17.480 ,3,0,0.,12.0,0.,12.0,0.,12.0,0.,12.0
1979-07-17 18:21:29.480 ,3,0,0.,12.0,0.,12.0,0.,12.0,0.,12.0
1979-07-17 18:21:41.480 ,2,0,0.,12.0,0.,12.0,0.,12.0,0.,12.0
1979-07-17 18:21:53.480 ,2,0,0.,12.0,0.,12.0,0.,12.0,0.,12.0
1979-07-17 18:22:05.480 ,2,0,0.,12.0,0.,12.0,0.,12.0,0.,12.0
1979-07-17 18:22:17.480 ,2,0,0.,12.0,0.,12.0,0.,12.0,0.,12.0
1979-07-17 18:22:29.480 ,1,0,0.,12.0,0.,12.0,0.,12.0,0.,12.0
1979-07-17 18:22:41.480 ,1,0,0.,12.0,0.,12.0,0.,12.0,0.,12.0
1979-07-17 18:22:53.480 ,1,0,0.,12.0,0.,12.0,0.,12.0,0.,12.0
1979-07-17 18:23:05.480 ,1,0,0.,12.0,0.,12.0,0.,12.0,0.,12.0
1979-07-17 18:23:17.480 ,0,0,0.,12.0,0.,12.0,0.,12.0,0.,12.0
1979-07-17 18:23:29.480 ,0,0,0.,12.0,0.,12.0,0.,12.0,0.,12.0
1979-07-17 18:23:41.480 ,0,0,0.,12.0,0.,12.0,0.,12.0,0.,12.0
1979-07-17 18:23:53.480 ,0,0,0.,12.0,0.,12.0,0.,12.0,0.,12.0
1979-07-17 18:24:05.480 ,0,0,0.,12.0,0.,12.0,0.,12.0,0.,12.0
1979-07-17 18:24:17.480 ,0,0,0.,12.0,0.,12.0,0.,12.0,0.,12.0
1979-07-17 18:24:29.480 ,0,0,0.,12.0,0.,12.0,0.,12.0,0.,12.0
1979-07-17 18:24:41.480 ,0,0,0.,12.0,0.,12.0,0.,12.0,0.,12.0
1979-07-17 18:24:53.480 ,1,0,0.,12.0,0.,12.0,0.,12.0,0.,12.0
1979-07-17 18:25:05.480 ,1,0,0.,12.0,0.,12.0,0.,12.0,0.,12.0
1979-07-17 18:25:17.480 ,1,0,0.,12.0,0.,12.0,0.,12.0,0.,12.0
1979-07-17 18:25:29.480 ,1,0,0.,12.0,0.,12.0,0.,12.0,0.,12.0
1979-07-17 18:25:41.480 ,2,0,0.,12.0,0.,12.0,0.,12.0,0.,12.0
1979-07-17 18:25:53.480 ,2,0,0.,12.0,0.,12.0,0.,12.0,0.,12.0
1979-07-17 18:26:05.480 ,2,0,0.,12.0,0.,12.0,0.,12.0,0.,12.0
1979-07-17 18:26:17.480 ,2,0,0.,12.0,0.,12.0,0.,12.0,0.,12.0
1979-07-17 18:26:29.480 ,3,0,0.,12.0,0.,12.0,0.,12.0,0.,12.0
1979-07-17 18:26:41.480 ,3,0,0.,12.0,0.,12.0,0.,12.0,0.,12.0
1979-07-17 18:26:53.480 ,3,0,0.,12.0,0.,12.0,0.,12.0,0.,12.0
1979-07-17 18:27:05.480 ,3,0,0.,12.0,0.,12.0,0.,12.0,0.,12.0
1979-07-17 18:27:17.480 ,4,0,0.,12.0,0.,12.0,0.,12.0,0.,12.0
1979-07-17 18:27:29.480 ,4,0,0.,12.0,0.,12.0,0.,12.0,0.,12.0
1979-07-17 18:27:41.480 ,4,0,0.,12.0,0.,12.0,0.,12.0,0.,12.0
1979-07-17 18:27:53.480 ,4,0,0.,12.0,0.,12.0,0.,12.0,0.,12.0
1979-07-17 18:28:05.480 ,5,0,0.,12.0,0.,12.0,0.,12.0,0.,12.0
1979-07-17 18:28:17.480 ,5,0,0.,12.0,0.,12.0,0.,12.0,0.,12.0
1979-07-17 18:28:29.480 ,5,0,0.,12.0,0.,12.0,0.,12.0,0.,12.0
1979-07-17 18:28:41.480 ,5,0,0.,12.0,0.,12.0,0.,12.0,0.,12.0
1979-07-17 18:28:53.480 ,6,0,0.,12.0,0.,12.0,0.,12.0,0.,12.0
1979-07-17 18:29:05.480 ,6,0,0.,12.0,0.,12.0,0.,12.0,0.,12.0
1979-07-17 18:29:17.480 ,6,0,0.,12.0,0.,12.0,0.,12.0,0.,12.0
1979-07-17 18:29:29.480 ,6,0,0.,12.0,0.,12.0,0.,12.0,0.,12.0
1979-07-17 18:29:41.480 ,7,0,0.,12.0,0.,12.0,0.,12.0,0.,12.0
1979-07-17 18:29:53.480 ,7,0,0.,12.0,0.,12.0,0.,12.0,0.,12.0
1979-07-17 18:30:05.480 ,7,0,0.,12.0,0.,12.0,0.,12.0,0.,12.0
1979-07-17 18:30:17.480 ,7,0,0.,12.0,0.,12.0,0.,12.0,0.,12.0
1979-07-17 18:30:29.480 ,7,0,0.,12.0,0.,12.0,0.,12.0,0.,12.0
1979-07-17 18:30:41.480 ,7,0,0.,12.0,0.,12.0,0.,12.0,0.,12.0
1979-07-17 18:30:53.480 ,7,0,0.,12.0,0.,12.0,0.,12.0,0.,12.0
1979-07-17 18:31:05.480 ,7,0,0.,12.0,0.,12.0,0.,12.0,0.,12.0
1979-07-17 18:31:17.480 ,6,0,0.,12.0,0.,12.0,0.,12.0,0.,12.0
1979-07-17 18:31:29.480 ,6,0,1.,12.0,0.,12.0,0.,12.0,0.,12.0
1979-07-17 18:31:41.480 ,6,0,1.,12.0,0.,12.0,0.,12.0,0.,12.0
1979-07-17 18:31:53.480 ,6,0,0.,12.0,0.,12.0,0.,12.0,0.,12.0
1979-07-17 18:32:05.480 ,5,0,0.,12.0,0.,12.0,0.,12.0,0.,12.0
1979-07-17 18:32:17.480 ,5,0,0.,12.0,0.,12.0,0.,12.0,0.,12.0
1979-07-17 18:32:29.480 ,5,0,0.,12.0,0.,12.0,0.,12.0,0.,12.0
1979-07-17 18:32:41.480 ,5,0,0.,12.0,0.,12.0,0.,12.0,0.,12.0
1979-07-17 18:32:53.480 ,4,0,0.,12.0,0.,12.0,0.,12.0,0.,12.0
1979-07-17 18:33:05.480 ,4,0,0.,12.0,0.,12.0,0.,12.0,0.,12.0
1979-07-17 18:33:17.480 ,4,0,0.,12.0,0.,12.0,0.,12.0,0.,12.0
1979-07-17 18:33:29.480 ,4,0,0.,12.0,0.,12.0,0.,12.0,0.,12.0
1979-07-17 18:33:41.480 ,3,0,0.,12.0,0.,12.0,0.,12.0,0.,12.0
1979-07-17 18:33:53.480 ,3,0,0.,12.0,0.,12.0,0.,12.0,0.,12.0
1979-07-17 18:34:05.480 ,3,0,0.,12.0,0.,12.0,0.,12.0,0.,12.0
1979-07-17 18:34:17.480 ,3,0,0.,12.0,0.,12.0,0.,12.0,0.,12.0
1979-07-17 18:34:29.480 ,2,0,0.,12.0,0.,12.0,0.,12.0,0.,12.0
1979-07-17 18:34:41.480 ,2,0,0.,12.0,0.,12.0,0.,12.0,0.,12.0
1979-07-17 18:34:53.480 ,2,0,0.,12.0,0.,12.0,0.,12.0,0.,12.0
1979-07-17 18:35:05.480 ,2,0,0.,12.0,0.,12.0,0.,12.0,0.,12.0
1979-07-17 18:35:17.480 ,1,0,0.,12.0,0.,12.0,0.,12.0,0.,12.0
1979-07-17 18:35:29.480 ,1,0,0.,12.0,0.,12.0,0.,12.0,0.,12.0
1979-07-17 18:35:41.480 ,1,0,0.,12.0,0.,12.0,0.,12.0,0.,12.0
1979-07-17 18:35:53.480 ,1,0,0.,12.0,0.,12.0,0.,12.0,0.,12.0
1979-07-17 18:36:05.480 ,0,0,0.,12.0,0.,12.0,0.,12.0,0.,12.0
1979-07-17 18:36:17.480 ,0,0,0.,12.0,0.,12.0,0.,12.0,0.,12.0
1979-07-17 18:36:29.480 ,0,0,0.,12.0,0.,12.0,0.,12.0,0.,12.0
1979-07-17 18:36:41.480 ,0,0,0.,12.0,0.,12.0,0.,12.0,0.,12.0
1979-07-17 18:36:53.480 ,0,0,0.,12.0,0.,12.0,0.,12.0,0.,12.0
1979-07-17 18:37:05.480 ,0,0,0.,12.0,0.,12.0,0.,12.0,0.,12.0
1979-07-17 18:37:17.480 ,0,0,0.,12.0,0.,12.0,0.,12.0,0.,12.0
1979-07-17 18:37:29.480 ,0,0,0.,12.0,0.,12.0,0.,12.0,0.,12.0
1979-07-17 18:37:41.480 ,1,0,0.,12.0,0.,12.0,0.,12.0,0.,12.0
1979-07-17 18:37:53.480 ,1,0,0.,12.0,0.,12.0,0.,12.0,0.,12.0
1979-07-17 18:38:05.480 ,1,0,0.,12.0,0.,12.0,0.,12.0,0.,12.0
1979-07-17 18:38:17.480 ,1,0,0.,12.0,0.,12.0,0.,12.0,0.,12.0
1979-07-17 18:38:29.480 ,2,0,0.,12.0,0.,12.0,0.,12.0,0.,12.0
1979-07-17 18:38:41.480 ,2,0,0.,12.0,0.,12.0,0.,12.0,0.,12.0
1979-07-17 18:38:53.480 ,2,0,0.,12.0,0.,12.0,0.,12.0,0.,12.0
1979-07-17 18:39:05.480 ,2,0,0.,12.0,0.,12.0,0.,12.0,0.,12.0
1979-07-17 18:39:17.480 ,3,0,0.,12.0,0.,12.0,0.,12.0,0.,12.0
1979-07-17 18:39:29.480 ,3,0,0.,12.0,0.,12.0,0.,12.0,0.,12.0
1979-07-17 18:39:41.480 ,3,0,0.,12.0,0.,12.0,0.,12.0,0.,12.0
1979-07-17 18:39:53.480 ,3,0,0.,12.0,0.,12.0,0.,12.0,0.,12.0
1979-07-17 18:40:05.480 ,4,0,0.,12.0,0.,12.0,0.,12.0,0.,12.0
1979-07-17 18:40:17.480 ,4,0,0.,12.0,0.,12.0,0.,12.0,0.,12.0
1979-07-17 18:40:29.480 ,4,0,0.,12.0,0.,12.0,0.,12.0,0.,12.0
1979-07-17 18:40:41.480 ,4,0,0.,12.0,0.,12.0,0.,12.0,0.,12.0
1979-07-17 18:40:53.480 ,5,0,0.,12.0,0.,12.0,0.,12.0,0.,12.0
1979-07-17 18:41:05.480 ,5,0,0.,12.0,0.,12.0,0.,12.0,0.,12.0
1979-07-17 18:41:17.480 ,5,0,0.,12.0,0.,12.0,0.,12.0,0.,12.0
1979-07-17 18:41:29.480 ,5,0,0.,12.0,0.,12.0,0.,12.0,0.,12.0
1979-07-17 18:41:41.480 ,6,0,0.,12.0,0.,12.0,0.,12.0,0.,12.0
1979-07-17 18:41:53.480 ,6,0,0.,12.0,0.,12.0,0.,12.0,0.,12.0
1979-07-17 18:42:05.480 ,6,0,0.,12.0,0.,12.0,0.,12.0,0.,12.0
1979-07-17 18:42:17.480 ,6,0,0.,12.0,0.,12.0,0.,12.0,0.,12.0
1979-07-17 18:42:29.480 ,7,0,0.,12.0,0.,12.0,0.,12.0,0.,12.0
1979-07-17 18:42:41.480 ,7,0,0.,12.0,0.,12.0,0.,12.0,0.,12.0
1979-07-17 18:42:53.480 ,7,0,0.,12.0,0.,12.0,0.,12.0,0.,12.0
1979-07-17 18:43:05.480 ,7,0,0.,12.0,0.,12.0,0.,12.0,0.,12.0
1979-07-17 18:43:17.480 ,3,1,0.,12.0,0.,12.0,0.,12.0,0.,12.0
1979-07-17 18:43:29.480 ,3,1,0.,12.0,0.,12.0,0.,12.0,0.,12.0
1979-07-17 18:43:41.480 ,0,1,0.,12.0,0.,12.0,0.,12.0,0.,12.0
1979-07-17 18:43:53.480 ,0,1,0.,12.0,0.,12.0,0.,12.0,0.,12.0
1979-07-17 18:44:05.480 ,4,1,0.,12.0,0.,12.0,0.,12.0,0.,12.0
1979-07-17 18:44:17.480 ,4,1,0.,12.0,0.,12.0,0.,12.0,0.,12.0
1979-07-17 18:44:29.480 ,7,1,0.,12.0,0.,12.0,0.,12.0,0.,12.0
1979-07-17 18:44:41.480 ,7,1,0.,12.0,0.,12.0,0.,12.0,0.,12.0
1979-07-17 18:44:53.480 ,3,1,0.,12.0,0.,12.0,0.,12.0,0.,12.0
1979-07-17 18:45:05.480 ,3,1,0.,12.0,0.,12.0,0.,12.0,0.,12.0
1979-07-17 18:45:17.480 ,0,1,1.,12.0,0.,12.0,0.,12.0,0.,12.0
1979-07-17 18:45:29.480 ,0,1,0.,12.0,0.,12.0,0.,12.0,0.,12.0
1979-07-17 18:45:41.480 ,4,1,0.,12.0,0.,12.0,0.,12.0,0.,12.0
1979-07-17 18:45:53.480 ,4,1,0.,12.0,0.,12.0,0.,12.0,0.,12.0
1979-07-17 18:46:05.480 ,7,1,0.,12.0,0.,12.0,0.,12.0,0.,12.0
1979-07-17 18:46:17.480 ,7,1,0.,12.0,0.,12.0,0.,12.0,0.,12.0
1979-07-17 18:46:29.480 ,3,1,0.,12.0,0.,12.0,0.,12.0,0.,12.0
1979-07-17 18:46:41.480 ,3,1,0.,12.0,0.,12.0,0.,12.0,0.,12.0
1979-07-17 18:46:53.480 ,0,1,0.,12.0,0.,12.0,0.,12.0,0.,12.0
1979-07-17 18:47:05.480 ,0,1,0.,12.0,0.,12.0,0.,12.0,0.,12.0
1979-07-17 18:47:17.480 ,4,1,0.,12.0,0.,12.0,0.,12.0,0.,12.0
1979-07-17 18:47:29.480 ,4,1,0.,12.0,0.,12.0,0.,12.0,0.,12.0
1979-07-17 18:47:41.480 ,7,1,0.,12.0,0.,12.0,0.,12.0,0.,12.0
1979-07-17 18:47:53.480 ,7,1,0.,12.0,0.,12.0,0.,12.0,0.,12.0
1979-07-17 18:48:05.480 ,3,1,0.,12.0,0.,12.0,0.,12.0,0.,12.0
1979-07-17 18:48:17.480 ,3,1,0.,12.0,0.,12.0,0.,12.0,0.,12.0
1979-07-17 18:48:29.480 ,0,1,0.,12.0,0.,12.0,0.,12.0,0.,12.0
1979-07-17 18:48:41.480 ,0,1,1.,12.0,0.,12.0,0.,12.0,0.,12.0
1979-07-17 18:48:53.480 ,4,1,0.,12.0,0.,12.0,0.,12.0,0.,12.0
1979-07-17 18:49:05.480 ,4,1,1.,12.0,0.,12.0,0.,12.0,0.,12.0
1979-07-17 18:49:17.480 ,7,1,0.,12.0,0.,12.0,0.,12.0,0.,12.0
1979-07-17 18:49:29.480 ,7,1,0.,12.0,0.,12.0,0.,12.0,0.,12.0
1979-07-17 18:49:41.480 ,3,1,0.,12.0,0.,12.0,0.,12.0,0.,12.0
1979-07-17 18:49:53.480 ,3,1,0.,12.0,0.,12.0,0.,12.0,0.,12.0
1979-07-17 18:50:05.480 ,0,1,0.,12.0,0.,12.0,0.,12.0,0.,12.0
1979-07-17 18:50:17.480 ,0,1,0.,12.0,0.,12.0,0.,12.0,0.,12.0
1979-07-17 18:50:29.480 ,4,1,0.,12.0,0.,12.0,0.,12.0,0.,12.0
1979-07-17 18:50:41.480 ,4,1,0.,12.0,0.,12.0,0.,12.0,0.,12.0
1979-07-17 18:50:53.480 ,7,1,0.,12.0,0.,12.0,0.,12.0,0.,12.0
1979-07-17 18:51:05.480 ,7,1,0.,12.0,0.,12.0,0.,12.0,0.,12.0
1979-07-17 18:51:17.480 ,3,1,0.,12.0,0.,12.0,0.,12.0,0.,12.0
1979-07-17 18:51:29.480 ,3,1,0.,12.0,0.,12.0,0.,12.0,0.,12.0
1979-07-17 18:51:41.480 ,0,1,0.,12.0,0.,12.0,0.,12.0,0.,12.0
1979-07-17 18:51:53.480 ,0,1,0.,12.0,0.,12.0,0.,12.0,0.,12.0
1979-07-17 18:52:05.480 ,4,1,0.,12.0,0.,12.0,0.,12.0,0.,12.0
1979-07-17 18:52:17.480 ,4,1,0.,12.0,0.,12.0,0.,12.0,0.,12.0
1979-07-17 18:52:29.480 ,7,1,0.,12.0,0.,12.0,0.,12.0,0.,12.0
1979-07-17 18:52:41.480 ,7,1,0.,12.0,0.,12.0,0.,12.0,0.,12.0
1979-07-17 18:52:53.480 ,3,1,0.,12.0,0.,12.0,0.,12.0,0.,12.0
1979-07-17 18:53:05.480 ,3,1,0.,12.0,0.,12.0,0.,12.0,0.,12.0
1979-07-17 18:53:17.480 ,0,1,0.,12.0,0.,12.0,0.,12.0,0.,12.0
1979-07-17 18:53:29.480 ,0,1,0.,12.0,0.,12.0,0.,12.0,0.,12.0
1979-07-17 18:53:41.480 ,0,0,0.,12.0,0.,12.0,0.,12.0,0.,12.0
1979-07-17 18:53:53.480 ,0,0,0.,12.0,0.,12.0,0.,12.0,0.,12.0
1979-07-17 18:54:05.480 ,0,0,0.,12.0,0.,12.0,0.,12.0,0.,12.0
1979-07-17 18:54:17.480 ,0,0,0.,12.0,0.,12.0,0.,12.0,0.,12.0
1979-07-17 18:54:29.480 ,5,0,0.,12.0,0.,12.0,0.,12.0,0.,12.0
1979-07-17 18:54:41.480 ,5,0,0.,12.0,0.,12.0,0.,12.0,0.,12.0
1979-07-17 18:54:53.480 ,5,0,1.,12.0,0.,12.0,0.,12.0,0.,12.0
1979-07-17 18:55:05.480 ,5,0,0.,12.0,0.,12.0,0.,12.0,0.,12.0
1979-07-17 18:55:17.480 ,4,0,0.,12.0,0.,12.0,0.,12.0,0.,12.0
1979-07-17 18:55:29.480 ,4,0,0.,12.0,0.,12.0,0.,12.0,0.,12.0
1979-07-17 18:55:41.480 ,4,0,0.,12.0,0.,12.0,0.,12.0,0.,12.0
1979-07-17 18:55:53.480 ,4,0,0.,12.0,0.,12.0,0.,12.0,0.,12.0
1979-07-17 18:56:05.480 ,3,0,0.,12.0,0.,12.0,0.,12.0,0.,12.0
1979-07-17 18:56:17.480 ,3,0,0.,12.0,0.,12.0,0.,12.0,0.,12.0
1979-07-17 18:56:29.480 ,3,0,0.,12.0,0.,12.0,0.,12.0,0.,12.0
1979-07-17 18:56:41.480 ,3,0,0.,12.0,0.,12.0,0.,12.0,0.,12.0
1979-07-17 18:56:53.480 ,2,0,0.,12.0,0.,12.0,0.,12.0,0.,12.0
1979-07-17 18:57:05.480 ,2,0,0.,12.0,0.,12.0,0.,12.0,0.,12.0
1979-07-17 18:57:17.480 ,2,0,0.,12.0,0.,12.0,0.,12.0,0.,12.0
1979-07-17 18:57:29.480 ,2,0,0.,12.0,0.,12.0,0.,12.0,0.,12.0
1979-07-17 18:57:41.480 ,1,0,0.,12.0,0.,12.0,0.,12.0,0.,12.0
1979-07-17 18:57:53.480 ,1,0,0.,12.0,0.,12.0,0.,12.0,0.,12.0
1979-07-17 18:58:05.480 ,1,0,0.,12.0,0.,12.0,0.,12.0,0.,12.0
1979-07-17 18:58:17.480 ,1,0,0.,12.0,0.,12.0,0.,12.0,0.,12.0
1979-07-17 18:58:29.480 ,0,0,0.,12.0,0.,12.0,0.,12.0,0.,12.0
1979-07-17 18:58:41.480 ,0,0,0.,12.0,0.,12.0,0.,12.0,0.,12.0
1979-07-17 18:58:53.480 ,0,0,0.,12.0,0.,12.0,0.,12.0,0.,12.0
1979-07-17 18:59:05.480 ,0,0,0.,12.0,0.,12.0,0.,12.0,0.,12.0
1979-07-17 18:59:17.480 ,0,0,0.,12.0,0.,12.0,0.,12.0,0.,12.0
1979-07-17 18:59:29.480 ,0,0,0.,12.0,0.,12.0,0.,12.0,0.,12.0
1979-07-17 18:59:41.480 ,0,0,0.,12.0,0.,12.0,0.,12.0,0.,12.0
1979-07-17 18:59:53.480 ,0,0,0.,12.0,0.,12.0,0.,12.0,0.,12.0
1979-07-17 19:00:05.480 ,1,0,0.,12.0,0.,12.0,0.,12.0,0.,12.0
1979-07-17 19:00:17.480 ,1,0,0.,12.0,0.,12.0,0.,12.0,0.,12.0
1979-07-17 19:00:29.480 ,1,0,0.,12.0,0.,12.0,0.,12.0,0.,12.0
1979-07-17 19:00:41.480 ,1,0,0.,12.0,0.,12.0,0.,12.0,0.,12.0
1979-07-17 19:00:53.480 ,2,0,0.,12.0,0.,12.0,0.,12.0,0.,12.0
1979-07-17 19:01:05.480 ,2,0,0.,12.0,0.,12.0,0.,12.0,0.,12.0
1979-07-17 19:01:17.470 ,2,0,0.,12.0,0.,12.0,0.,12.0,0.,12.0
1979-07-17 19:01:29.480 ,2,0,0.,12.0,0.,12.0,0.,12.0,0.,12.0
1979-07-17 19:01:41.480 ,3,0,0.,12.0,0.,12.0,0.,12.0,0.,12.0
1979-07-17 19:01:53.480 ,3,0,0.,12.0,0.,12.0,0.,12.0,0.,12.0
1979-07-17 19:02:05.470 ,3,0,0.,12.0,0.,12.0,0.,12.0,0.,12.0
1979-07-17 19:02:17.480 ,3,0,0.,12.0,0.,12.0,0.,12.0,0.,12.0
1979-07-17 19:02:29.480 ,4,0,0.,12.0,0.,12.0,0.,12.0,0.,12.0
1979-07-17 19:02:41.480 ,4,0,0.,12.0,0.,12.0,0.,12.0,0.,12.0
1979-07-17 19:02:53.480 ,4,0,0.,12.0,0.,12.0,0.,12.0,0.,12.0
1979-07-17 19:03:05.480 ,4,0,0.,12.0,0.,12.0,0.,12.0,0.,12.0
1979-07-17 19:03:17.480 ,5,0,0.,12.0,0.,12.0,0.,12.0,0.,12.0
1979-07-17 19:03:29.480 ,5,0,0.,12.0,0.,12.0,0.,12.0,0.,12.0
1979-07-17 19:03:41.480 ,5,0,0.,12.0,0.,12.0,0.,12.0,0.,12.0
1979-07-17 19:03:53.480 ,5,0,0.,12.0,0.,12.0,0.,12.0,0.,12.0
1979-07-17 19:04:05.480 ,6,0,1.,12.0,0.,12.0,0.,12.0,0.,12.0
1979-07-17 19:04:17.480 ,6,0,0.,12.0,0.,12.0,0.,12.0,0.,12.0
1979-07-17 19:04:29.480 ,6,0,0.,12.0,0.,12.0,0.,12.0,0.,12.0
1979-07-17 19:04:41.480 ,6,0,0.,12.0,0.,12.0,0.,12.0,0.,12.0
1979-07-17 19:04:53.480 ,7,0,0.,12.0,0.,12.0,0.,12.0,0.,12.0
1979-07-17 19:05:05.480 ,7,0,0.,12.0,0.,12.0,0.,12.0,0.,12.0
1979-07-17 19:05:17.480 ,7,0,0.,12.0,0.,12.0,0.,12.0,0.,12.0
1979-07-17 19:05:29.480 ,7,0,0.,12.0,0.,12.0,0.,12.0,0.,12.0
1979-07-17 19:05:41.480 ,7,0,0.,12.0,0.,12.0,0.,12.0,0.,12.0
1979-07-17 19:05:53.480 ,7,0,0.,12.0,0.,12.0,0.,12.0,0.,12.0
1979-07-17 19:06:05.480 ,7,0,0.,12.0,0.,12.0,0.,12.0,0.,12.0
1979-07-17 19:06:17.480 ,7,0,0.,12.0,0.,12.0,0.,12.0,0.,12.0
1979-07-17 19:06:29.480 ,6,0,0.,12.0,0.,12.0,0.,12.0,0.,12.0
1979-07-17 19:06:41.480 ,6,0,0.,12.0,0.,12.0,0.,12.0,0.,12.0
1979-07-17 19:06:53.480 ,6,0,0.,12.0,0.,12.0,0.,12.0,0.,12.0
1979-07-17 19:07:05.480 ,6,0,0.,12.0,0.,12.0,0.,12.0,0.,12.0
1979-07-17 19:07:17.480 ,0,0,0.,12.0,0.,12.0,0.,12.0,0.,12.0
1979-07-17 19:07:29.480 ,0,0,,0,,0,,0,,0
1979-07-17 19:07:41.480 ,0,0,,0,,0,,0,,0
1979-07-17 19:07:53.480 ,0,0,,0,,0,,0,,0
1979-07-17 19:07:41.480 ,5,0,0.,12.0,0.,12.0,0.,12.0,0.,12.0
1979-07-17 19:07:53.480 ,5,0,0.,12.0,0.,12.0,0.,12.0,0.,12.0
1979-07-17 19:08:05.480 ,4,0,0.,12.0,0.,12.0,0.,12.0,0.,12.0
1979-07-17 19:08:17.480 ,4,0,0.,12.0,0.,12.0,0.,12.0,0.,12.0
1979-07-17 19:08:29.480 ,4,0,0.,12.0,0.,12.0,0.,12.0,0.,12.0
1979-07-17 19:08:41.480 ,4,0,0.,12.0,0.,12.0,0.,12.0,0.,12.0
1979-07-17 19:08:53.470 ,3,0,0.,12.0,0.,12.0,0.,12.0,0.,12.0
1979-07-17 19:09:05.470 ,3,0,0.,12.0,0.,12.0,0.,12.0,0.,12.0
1979-07-17 19:09:17.470 ,3,0,0.,12.0,0.,12.0,0.,12.0,0.,12.0
1979-07-17 19:09:29.470 ,3,0,0.,12.0,0.,12.0,0.,12.0,0.,12.0
1979-07-17 19:09:41.470 ,2,0,0.,12.0,0.,12.0,0.,12.0,0.,12.0
1979-07-17 19:09:53.470 ,2,0,0.,12.0,0.,12.0,0.,12.0,0.,12.0
1979-07-17 19:10:05.470 ,2,0,0.,12.0,0.,12.0,0.,12.0,0.,12.0
1979-07-17 19:10:17.470 ,2,0,0.,12.0,0.,12.0,0.,12.0,0.,12.0
1979-07-17 19:10:29.470 ,1,0,0.,12.0,0.,12.0,0.,12.0,0.,12.0
1979-07-17 19:10:41.470 ,1,0,0.,12.0,0.,12.0,0.,12.0,0.,12.0
1979-07-17 19:10:53.470 ,1,0,0.,12.0,0.,12.0,0.,12.0,0.,12.0
1979-07-17 19:11:05.470 ,1,0,0.,12.0,0.,12.0,0.,12.0,0.,12.0
1979-07-17 19:11:17.470 ,0,0,0.,12.0,0.,12.0,0.,12.0,0.,12.0
1979-07-17 19:11:29.470 ,0,0,0.,12.0,0.,12.0,0.,12.0,0.,12.0
1979-07-17 19:11:41.470 ,0,0,0.,12.0,0.,12.0,0.,12.0,0.,12.0
1979-07-17 19:11:53.470 ,0,0,0.,12.0,0.,12.0,0.,12.0,0.,12.0
1979-07-17 19:12:05.470 ,0,0,0.,12.0,0.,12.0,0.,12.0,0.,12.0
1979-07-17 19:12:17.470 ,0,0,0.,12.0,0.,12.0,0.,12.0,0.,12.0
1979-07-17 19:12:29.470 ,0,0,0.,12.0,0.,12.0,0.,12.0,0.,12.0
1979-07-17 19:12:41.470 ,0,0,0.,12.0,0.,12.0,0.,12.0,0.,12.0
1979-07-17 19:12:53.470 ,1,0,0.,12.0,0.,12.0,0.,12.0,0.,12.0
1979-07-17 19:13:05.470 ,1,0,0.,12.0,0.,12.0,0.,12.0,0.,12.0
1979-07-17 19:13:17.470 ,1,0,0.,12.0,0.,12.0,0.,12.0,0.,12.0
1979-07-17 19:13:29.470 ,1,0,0.,12.0,0.,12.0,0.,12.0,0.,12.0
1979-07-17 19:13:41.470 ,2,0,0.,12.0,0.,12.0,0.,12.0,0.,12.0
1979-07-17 19:13:53.470 ,2,0,0.,12.0,0.,12.0,0.,12.0,0.,12.0
1979-07-17 19:14:05.470 ,2,0,1.,12.0,0.,12.0,0.,12.0,0.,12.0
1979-07-17 19:14:17.470 ,2,0,0.,12.0,0.,12.0,0.,12.0,0.,12.0
1979-07-17 19:14:29.470 ,3,0,0.,12.0,0.,12.0,0.,12.0,0.,12.0
1979-07-17 19:14:41.470 ,3,0,0.,12.0,0.,12.0,0.,12.0,0.,12.0
1979-07-17 19:14:53.470 ,3,0,0.,12.0,0.,12.0,0.,12.0,0.,12.0
1979-07-17 19:15:05.470 ,3,0,0.,12.0,0.,12.0,0.,12.0,0.,12.0
1979-07-17 19:15:17.470 ,4,0,0.,12.0,0.,12.0,0.,12.0,0.,12.0
1979-07-17 19:15:29.470 ,4,0,0.,12.0,0.,12.0,0.,12.0,0.,12.0
1979-07-17 19:15:41.470 ,4,0,0.,12.0,0.,12.0,0.,12.0,0.,12.0
1979-07-17 19:15:53.470 ,4,0,0.,12.0,0.,12.0,0.,12.0,0.,12.0
1979-07-17 19:16:05.470 ,5,0,0.,12.0,0.,12.0,0.,12.0,0.,12.0
1979-07-17 19:16:17.470 ,5,0,0.,12.0,0.,12.0,0.,12.0,0.,12.0
1979-07-17 19:16:29.470 ,5,0,2.,12.0,0.,12.0,0.,12.0,0.,12.0
1979-07-17 19:16:41.470 ,5,0,0.,12.0,0.,12.0,0.,12.0,0.,12.0
1979-07-17 19:16:53.470 ,6,0,1.,12.0,0.,12.0,0.,12.0,0.,12.0
1979-07-17 19:17:05.470 ,6,0,0.,12.0,0.,12.0,0.,12.0,0.,12.0
1979-07-17 19:17:17.470 ,6,0,0.,12.0,0.,12.0,0.,12.0,0.,12.0